ITA1795 LIRF-LICJ

Flight info

Callsign ITA1795
Flight time N/A
Altitude 29000
Route ROTUN8B ROTUN DCT GIANO GIANO3N
Aircraft A320/M-SDE3FGHIRWY/LB1

Departure

Time 2026-05-04 17:43
Airport Rome–Fiumicino Leonardo da Vinci International Airport (LIRF)

Arrival

Time N/A
Airport Falcone–Borsellino Airport (LICJ)
Time Latitude Longitude Altitude Speed Heading
2026-05-04 17:27 41.79801 12.25685 15 ft 0 kts 295°
2026-05-04 17:33 41.79791 12.25714 15 ft 1 kts 295°
2026-05-04 17:33 41.79781 12.25736 17 ft 3 kts 327°
2026-05-04 17:34 41.79776 12.25752 15 ft 3 kts 25°
2026-05-04 17:34 41.79795 12.25764 15 ft 1 kts 25°
2026-05-04 17:35 41.79796 12.25764 15 ft 0 kts 25°
2026-05-04 17:37 41.79817 12.25778 14 ft 6 kts 25°
2026-05-04 17:38 41.79871 12.25821 16 ft 12 kts 31°
2026-05-04 17:38 41.79964 12.25879 14 ft 18 kts 24°
2026-05-04 17:38 41.80095 12.25960 14 ft 22 kts 25°
2026-05-04 17:38 41.80227 12.26041 14 ft 18 kts 25°
2026-05-04 17:39 41.80468 12.26176 16 ft 18 kts
2026-05-04 17:39 41.80546 12.26299 16 ft 20 kts 73°
2026-05-04 17:39 41.80590 12.26464 17 ft 17 kts 70°
2026-05-04 17:40 41.80630 12.26607 15 ft 17 kts 70°
2026-05-04 17:40 41.80675 12.26773 14 ft 21 kts 70°
2026-05-04 17:40 41.80724 12.26949 15 ft 19 kts 70°
2026-05-04 17:40 41.80771 12.27044 13 ft 9 kts 20°
2026-05-04 17:41 41.80825 12.27032 15 ft 7 kts 340°
2026-05-04 17:41 41.80861 12.27015 13 ft 4 kts 340°
2026-05-04 17:41 41.80888 12.27002 13 ft 5 kts 340°
2026-05-04 17:41 41.80936 12.26976 13 ft 10 kts 330°
2026-05-04 17:42 41.80949 12.26894 13 ft 9 kts 252°
2026-05-04 17:42 41.80934 12.26840 15 ft 4 kts 250°
2026-05-04 17:42 41.80925 12.26807 14 ft 3 kts 250°
2026-05-04 17:42 41.80914 12.26768 14 ft 11 kts 250°
2026-05-04 17:43 41.80801 12.26362 19 ft 84 kts 249°
2026-05-04 17:43 41.80522 12.25350 17 ft 145 kts 250°
2026-05-04 17:43 41.80120 12.23890 170 ft 179 kts 248°
2026-05-04 17:43 41.79696 12.22259 690 ft 194 kts 249°
2026-05-04 17:44 41.79210 12.20506 1317 ft 204 kts 240°
2026-05-04 17:44 41.78220 12.19089 1767 ft 221 kts 208°
2026-05-04 17:44 41.76789 12.18066 2379 ft 243 kts 206°
2026-05-04 17:44 41.75273 12.16987 3274 ft 249 kts 206°
2026-05-04 17:45 41.73733 12.15879 4242 ft 253 kts 207°
2026-05-04 17:45 41.72138 12.14860 5187 ft 256 kts 197°
2026-05-04 17:45 41.70380 12.14427 6086 ft 260 kts 181°
2026-05-04 17:45 41.68570 12.14653 6983 ft 264 kts 172°
2026-05-04 17:46 41.66743 12.15030 7835 ft 268 kts 172°
2026-05-04 17:46 41.64883 12.15409 8688 ft 272 kts 173°
2026-05-04 17:46 41.63012 12.15785 9516 ft 277 kts 173°
2026-05-04 17:46 41.61084 12.16169 10305 ft 283 kts 173°
2026-05-04 17:47 41.59058 12.16573 10638 ft 306 kts 173°
2026-05-04 17:47 41.56873 12.17002 10967 ft 326 kts 173°
2026-05-04 17:47 41.54594 12.17450 11585 ft 335 kts 174°
2026-05-04 17:47 41.52257 12.17911 12278 ft 342 kts 174°
2026-05-04 17:48 41.49879 12.18383 13009 ft 347 kts 174°
2026-05-04 17:48 41.47478 12.18861 13737 ft 352 kts 174°
2026-05-04 17:48 41.45865 12.19186 14186 ft 355 kts 174°
2026-05-04 17:48 41.42609 12.19847 15058 ft 360 kts 174°
2026-05-04 17:49 41.40114 12.20350 15737 ft 363 kts 174°
2026-05-04 17:49 41.37625 12.20850 16393 ft 366 kts 175°
2026-05-04 17:49 41.35085 12.21352 17065 ft 369 kts 175°
2026-05-04 17:49 41.32520 12.21859 17720 ft 372 kts 175°
2026-05-04 17:50 41.29969 12.22361 18357 ft 376 kts 175°
2026-05-04 17:50 41.27357 12.22875 18914 ft 380 kts 175°
2026-05-04 17:50 41.24724 12.23396 19450 ft 384 kts 175°
2026-05-04 17:50 41.22106 12.23915 19972 ft 388 kts 175°
2026-05-04 17:51 41.19421 12.24448 20502 ft 392 kts 175°
2026-05-04 17:51 41.16701 12.24986 21019 ft 397 kts 175°
2026-05-04 17:51 41.13954 12.25524 21541 ft 401 kts 175°
2026-05-04 17:51 41.11179 12.26065 22042 ft 406 kts 175°
2026-05-04 17:52 41.08373 12.26612 22548 ft 410 kts 175°
2026-05-04 17:52 41.05535 12.27170 23055 ft 414 kts 174°
2026-05-04 17:52 41.02669 12.27736 23544 ft 418 kts 174°
2026-05-04 17:52 40.99770 12.28307 23977 ft 422 kts 174°
2026-05-04 17:53 40.96856 12.28881 24405 ft 425 kts 175°
2026-05-04 17:53 40.93916 12.29461 24823 ft 428 kts 175°
2026-05-04 17:53 40.90963 12.30040 25235 ft 430 kts 175°
2026-05-04 17:53 40.87992 12.30569 25628 ft 431 kts 180°
2026-05-04 17:54 40.84998 12.30791 26032 ft 432 kts 181°
2026-05-04 17:54 40.81987 12.31002 26428 ft 434 kts 182°
2026-05-04 17:54 40.78966 12.31220 26819 ft 436 kts 182°
2026-05-04 17:54 40.75929 12.31443 27204 ft 438 kts 182°
2026-05-04 17:55 40.72875 12.31668 27575 ft 441 kts 182°
2026-05-04 17:55 40.69806 12.31894 27946 ft 443 kts 182°
2026-05-04 17:55 40.66720 12.32119 28297 ft 445 kts 182°
2026-05-04 17:55 40.63616 12.32340 28634 ft 448 kts 182°
2026-05-04 17:56 40.60495 12.32561 28976 ft 450 kts 182°
2026-05-04 17:56 40.57407 12.32782 29112 ft 448 kts 182°
2026-05-04 17:56 40.54344 12.33013 29128 ft 435 kts 183°
2026-05-04 17:56 40.51334 12.33240 29127 ft 430 kts 183°
2026-05-04 17:57 40.45384 12.33663 29125 ft 427 kts 182°
2026-05-04 17:57 40.39454 12.34077 29130 ft 426 kts 182°
2026-05-04 17:58 40.33561 12.34501 29130 ft 426 kts 182°
2026-05-04 17:58 40.27631 12.34923 29128 ft 426 kts 182°
2026-05-04 17:59 40.21710 12.35340 29111 ft 426 kts 182°
2026-05-04 18:00 40.12820 12.35972 29107 ft 427 kts 182°
2026-05-04 18:00 40.06880 12.36388 29109 ft 427 kts 182°
2026-05-04 18:01 40.00948 12.36809 29112 ft 427 kts 182°
2026-05-04 18:01 39.95007 12.37235 29112 ft 427 kts 182°
2026-05-04 18:02 39.86141 12.37856 29112 ft 427 kts 182°
2026-05-04 18:02 39.80202 12.38277 29101 ft 427 kts 182°
2026-05-04 18:03 39.74258 12.38699 29104 ft 428 kts 182°
2026-05-04 18:03 39.68307 12.39115 29107 ft 428 kts 182°
2026-05-04 18:04 39.62350 12.39527 29106 ft 429 kts 182°
2026-05-04 18:05 39.53407 12.40152 29107 ft 429 kts 182°
2026-05-04 18:05 39.47424 12.40574 29104 ft 430 kts 182°
2026-05-04 18:06 39.38450 12.41190 28442 ft 433 kts 182°
2026-05-04 18:06 39.35485 12.41395 27885 ft 429 kts 182°
2026-05-04 18:06 39.32500 12.41606 27350 ft 425 kts 182°
2026-05-04 18:07 39.29557 12.41818 26809 ft 422 kts 182°
2026-05-04 18:07 39.26642 12.42026 26294 ft 418 kts 182°
2026-05-04 18:07 39.23746 12.42229 25785 ft 415 kts 182°
2026-05-04 18:07 39.20905 12.42424 25304 ft 412 kts 182°
2026-05-04 18:08 39.18020 12.42623 24801 ft 409 kts 182°
2026-05-04 18:08 39.15188 12.42817 24330 ft 406 kts 182°
2026-05-04 18:08 39.12407 12.43005 23848 ft 404 kts 181°
2026-05-04 18:08 39.09605 12.43194 23299 ft 402 kts 181°
2026-05-04 18:09 39.04063 12.43573 22316 ft 395 kts 181°
2026-05-04 18:09 38.98610 12.43952 21326 ft 390 kts 181°
2026-05-04 18:10 38.96823 12.44077 20995 ft 388 kts 181°
2026-05-04 18:10 38.94129 12.44266 20488 ft 387 kts 181°
2026-05-04 18:10 38.91449 12.44450 19986 ft 385 kts 181°
2026-05-04 18:10 38.88775 12.44655 19481 ft 385 kts 177°
2026-05-04 18:11 38.86143 12.45355 18977 ft 388 kts 165°
2026-05-04 18:11 38.83640 12.46688 18422 ft 391 kts 158°
2026-05-04 18:11 38.81173 12.48175 17815 ft 391 kts 157°
2026-05-04 18:11 38.78720 12.49660 17273 ft 389 kts 157°
2026-05-04 18:12 38.76279 12.51156 16731 ft 388 kts 155°
2026-05-04 18:12 38.74083 12.53079 16227 ft 390 kts 138°
2026-05-04 18:12 38.72432 12.55781 15971 ft 383 kts 119°
2026-05-04 18:12 38.71443 12.58917 15721 ft 375 kts 109°
2026-05-04 18:13 38.70620 12.62056 15469 ft 367 kts 109°
2026-05-04 18:13 38.69815 12.65128 15228 ft 362 kts 109°
2026-05-04 18:13 38.68231 12.71155 14743 ft 358 kts 109°
2026-05-04 18:14 38.67441 12.74164 14516 ft 356 kts 109°
2026-05-04 18:14 38.66651 12.77161 14275 ft 355 kts 109°
2026-05-04 18:14 38.65864 12.80148 14046 ft 354 kts 109°
2026-05-04 18:15 38.64296 12.86083 13538 ft 351 kts 109°
2026-05-04 18:15 38.62735 12.91976 13006 ft 348 kts 109°
2026-05-04 18:15 38.61958 12.94906 12757 ft 347 kts 109°
2026-05-04 18:16 38.61197 12.97779 12505 ft 345 kts 109°
2026-05-04 18:16 38.60429 13.00682 12252 ft 343 kts 109°
2026-05-04 18:16 38.59661 13.03573 12001 ft 342 kts 109°
2026-05-04 18:17 38.58129 13.09292 11503 ft 338 kts 109°
2026-05-04 18:17 38.57369 13.12127 11260 ft 337 kts 109°
2026-05-04 18:17 38.55852 13.17767 10773 ft 334 kts 111°
2026-05-04 18:18 38.54752 13.20359 10539 ft 332 kts 127°
2026-05-04 18:18 38.53203 13.22507 10248 ft 326 kts 141°
2026-05-04 18:18 38.51366 13.24047 10082 ft 314 kts 155°
2026-05-04 18:18 38.49403 13.25128 9957 ft 302 kts 159°
2026-05-04 18:19 38.45720 13.27107 9682 ft 268 kts 159°
2026-05-04 18:19 38.44057 13.28004 9434 ft 254 kts 159°
2026-05-04 18:19 38.42438 13.28875 8979 ft 250 kts 159°
2026-05-04 18:20 38.40843 13.29731 8502 ft 248 kts 159°
2026-05-04 18:20 38.39286 13.30646 8041 ft 245 kts 155°
2026-05-04 18:20 38.37774 13.31634 7590 ft 243 kts 154°
2026-05-04 18:20 38.36283 13.32622 7139 ft 240 kts 154°
2026-05-04 18:21 38.34807 13.33598 6682 ft 238 kts 154°
2026-05-04 18:21 38.33335 13.34565 6286 ft 238 kts 154°
2026-05-04 18:21 38.31851 13.35535 5823 ft 243 kts 154°
2026-05-04 18:21 38.30327 13.36532 5334 ft 249 kts 154°
2026-05-04 18:22 38.28800 13.37525 4993 ft 248 kts 155°
2026-05-04 18:22 38.27162 13.37968 4681 ft 241 kts 188°
2026-05-04 18:22 38.25695 13.37061 4323 ft 238 kts 227°
2026-05-04 18:22 38.25016 13.35188 3918 ft 237 kts 265°
2026-05-04 18:23 38.25114 13.33117 3543 ft 228 kts 274°
2026-05-04 18:23 38.24972 13.31230 3497 ft 203 kts 249°
2026-05-04 18:23 38.24444 13.29623 3533 ft 195 kts 246°
2026-05-04 18:23 38.23915 13.28036 3512 ft 194 kts 246°
2026-05-04 18:24 38.23392 13.26457 3506 ft 193 kts 246°
2026-05-04 18:24 38.22876 13.24901 3374 ft 188 kts 246°
2026-05-04 18:24 38.22370 13.23378 3061 ft 187 kts 246°
2026-05-04 18:24 38.21862 13.21860 2720 ft 187 kts 245°
2026-05-04 18:25 38.21325 13.20359 2305 ft 190 kts 245°
2026-05-04 18:25 38.20825 13.18803 1770 ft 189 kts 246°
2026-05-04 18:25 38.20305 13.17289 1269 ft 184 kts 247°
2026-05-04 18:25 38.19814 13.15783 848 ft 175 kts 246°
2026-05-04 18:26 38.19370 13.14451 597 ft 159 kts 247°
2026-05-04 18:26 38.18955 13.13202 362 ft 147 kts 247°
2026-05-04 18:26 38.18564 13.12025 158 ft 141 kts 246°
2026-05-04 18:26 38.18234 13.11036 68 ft 126 kts 244°